Date String (YYYY-MM-DD hh:mm:ss) UTC,Instrument flags,Ambient pressure (hPa),Sample flow (lpm),Bypass flow (lpm),Sample temperature (°C),Ambient temperature (°C),ASC tube jacket temperature (°C),LED temperature (°C),Box temperature (°C),Sample RH (%),Span deviation,Mass concentration (μg/m³),Mass concentration (μg/m³),Mass concentration (μg/m³)
DateTimeUTC,F1_M11,P_M11,Q1_M11,Q2_M11,T1_M11,T2_M11,T3_M11,T4_M11,T5_M11,U1_M11,ZSPAN_M11,X0_M11,X2_M11,X1_M11
2022-12-27 19:00:00,,0811.8,5.00,0.00,24.3,22.9,00.0,33.1,26.0,09.3,0000.0,0003.81,0000.29,0000.15
2022-12-27 19:01:00,,0811.9,5.01,0.00,24.3,22.9,00.0,33.1,26.1,09.0,0000.0,0004.30,0000.30,0000.14
2022-12-27 19:02:00,,0811.9,4.99,0.00,24.3,22.9,00.0,33.1,26.1,09.6,0000.0,0004.30,0000.31,0000.14
2022-12-27 19:03:00,,0811.9,4.99,0.00,24.3,22.9,00.0,33.1,26.1,09.7,0000.0,0004.20,0000.31,0000.14
2022-12-27 19:04:00,,0811.8,5.01,0.00,24.3,22.9,00.0,33.1,26.1,09.3,0000.0,0003.39,0000.29,0000.13
2022-12-27 19:05:00,,0811.8,5.00,0.00,24.3,22.9,00.0,33.1,26.1,09.0,0000.0,0003.40,0000.30,0000.13
2022-12-27 19:06:00,,0811.8,5.00,0.00,24.3,22.9,00.0,33.1,26.1,08.8,0000.0,0002.91,0000.32,0000.14
2022-12-27 19:07:00,,0811.7,5.00,0.00,24.3,22.9,00.0,33.1,26.1,08.7,0000.0,0002.89,0000.32,0000.13
2022-12-27 19:08:00,,0811.7,4.99,0.00,24.3,22.9,00.0,33.1,26.1,08.7,0000.0,0002.35,0000.32,0000.13
2022-12-27 19:09:00,,0811.6,5.00,0.00,24.3,22.9,00.0,33.1,26.1,09.2,0000.0,0001.48,0000.33,0000.13
2022-12-27 19:10:00,,0811.6,5.00,0.00,24.3,22.9,00.0,33.1,26.1,09.0,0000.0,0003.97,0000.41,0000.13
2022-12-27 19:11:00,,0811.5,5.00,0.00,24.3,22.9,00.0,33.1,26.1,08.6,0000.0,0003.95,0000.38,0000.13
2022-12-27 19:12:00,,0811.5,5.00,0.00,24.2,22.9,00.0,33.1,26.0,08.7,0000.0,0003.21,0000.35,0000.12
2022-12-27 19:13:00,,0811.4,5.00,0.00,24.2,22.8,00.0,33.1,26.0,08.7,0000.0,0003.26,0000.34,0000.13
2022-12-27 19:14:00,,0811.4,4.99,0.00,24.2,22.8,00.0,33.1,26.0,08.5,0000.0,0004.36,0000.33,0000.14
2022-12-27 19:15:00,,0811.3,5.00,0.00,24.2,22.8,00.0,33.1,26.0,08.5,0000.0,0004.37,0000.34,0000.14
2022-12-27 19:16:00,,0811.3,5.00,0.00,24.2,22.8,00.0,33.1,26.0,08.7,0000.0,0004.41,0000.35,0000.14
2022-12-27 19:17:00,,0811.6,5.00,0.00,24.2,22.8,00.0,33.1,26.0,08.4,0000.0,0004.37,0000.34,0000.14
2022-12-27 19:18:00,,0811.6,5.00,0.00,24.2,22.9,00.0,33.1,26.0,08.9,0000.0,0004.43,0000.38,0000.15
2022-12-27 19:19:00,,0811.8,5.00,0.00,24.2,22.9,00.0,33.1,26.0,09.2,0000.0,0004.44,0000.38,0000.16
2022-12-27 19:20:00,,0811.8,5.00,0.00,24.2,22.9,00.0,33.1,26.0,09.4,0000.0,0004.43,0000.38,0000.16
2022-12-27 19:21:00,,0811.8,5.01,0.00,24.2,22.9,00.0,33.1,26.1,09.3,0000.0,0002.28,0000.33,0000.15
2022-12-27 19:22:00,,0811.7,5.00,0.00,24.3,22.9,00.0,33.1,26.1,09.7,0000.0,0001.79,0000.32,0000.16
2022-12-27 19:23:00,,0811.6,5.00,0.00,24.3,22.9,00.0,33.1,26.1,09.2,0000.0,0001.80,0000.33,0000.16
2022-12-27 19:24:00,,0811.5,5.00,0.00,24.3,22.9,00.0,33.1,26.1,09.4,0000.0,0001.78,0000.32,0000.16
2022-12-27 19:25:00,,0811.4,5.00,0.00,24.3,22.9,00.0,33.1,26.1,09.5,0000.0,0000.59,0000.31,0000.15
2022-12-27 19:26:00,,0811.7,5.00,0.00,24.3,23.0,00.0,33.1,26.1,09.7,0000.0,0000.58,0000.33,0000.16
2022-12-27 19:27:00,,0812.0,5.00,0.00,24.3,23.0,00.0,33.1,26.1,10.3,0000.0,0000.56,0000.32,0000.17
2022-12-27 19:28:00,,0812.0,4.99,0.00,24.3,23.0,00.0,33.1,26.1,10.5,0000.0,0000.54,0000.31,0000.17
2022-12-27 19:29:00,,0812.0,5.00,0.00,24.3,23.0,00.0,33.1,26.1,10.2,0000.0,0000.47,0000.28,0000.18
2022-12-27 19:30:00,,0812.1,4.99,0.00,24.3,23.1,00.0,33.1,26.2,09.9,0000.0,0000.47,0000.28,0000.19
2022-12-27 19:31:00,,0812.1,5.01,0.00,24.3,23.1,00.0,33.1,26.1,09.5,0000.0,0000.46,0000.28,0000.19
2022-12-27 19:32:00,,0812.0,5.00,0.00,24.3,23.1,00.0,33.1,26.1,09.5,0000.0,0001.58,0000.28,0000.20
2022-12-27 19:33:00,,0811.6,5.00,0.00,24.4,23.1,00.0,33.1,26.2,09.8,0000.0,0001.84,0000.32,0000.21
2022-12-27 19:34:00,,0811.8,4.99,0.00,24.4,23.2,00.0,33.2,26.3,09.3,0000.0,0001.94,0000.36,0000.21
2022-12-27 19:35:00,,0811.7,5.01,0.00,24.4,23.2,00.0,33.2,26.3,09.1,0000.0,0001.94,0000.35,0000.22
2022-12-27 19:36:00,,0811.7,5.00,0.00,24.4,23.2,00.0,33.2,26.3,09.2,0000.0,0001.97,0000.37,0000.22
2022-12-27 19:37:00,,0811.8,5.00,0.00,24.4,23.2,00.0,33.2,26.3,09.9,0000.0,0001.98,0000.37,0000.22
2022-12-27 19:38:00,,0811.6,4.99,0.00,24.4,23.2,00.0,33.2,26.3,10.7,0000.0,0002.00,0000.38,0000.23
2022-12-27 19:39:00,,0811.5,4.99,0.00,24.4,23.1,00.0,33.2,26.3,10.4,0000.0,0002.12,0000.42,0000.24
2022-12-27 19:40:00,,0811.6,5.00,0.00,24.4,23.1,00.0,33.2,26.3,10.3,0000.0,0002.24,0000.48,0000.24
2022-12-27 19:41:00,,0811.6,5.00,0.00,24.4,23.1,00.0,33.2,26.3,10.8,0000.0,0002.43,0000.50,0000.25
2022-12-27 19:42:00,,0811.7,5.00,0.00,24.4,23.1,00.0,33.2,26.3,10.3,0000.0,0002.47,0000.51,0000.26
2022-12-27 19:43:00,,0811.8,5.00,0.00,24.4,23.2,00.0,33.2,26.3,09.8,0000.0,0001.55,0000.54,0000.26
2022-12-27 19:44:00,,0811.6,5.00,0.00,24.4,23.2,00.0,33.2,26.3,10.2,0000.0,0001.16,0000.52,0000.26
2022-12-27 19:45:00,,0811.5,5.00,0.00,24.4,23.2,00.0,33.3,26.3,10.4,0000.0,0001.14,0000.49,0000.27
2022-12-27 19:46:00,,0811.5,5.00,0.00,24.4,23.1,00.0,33.3,26.3,10.4,0000.0,0001.53,0000.51,0000.28
2022-12-27 19:47:00,,0811.5,5.00,0.00,24.4,23.1,00.0,33.3,26.3,10.7,0000.0,0001.61,0000.53,0000.29
2022-12-27 19:48:00,,0811.6,5.00,0.00,24.4,23.1,00.0,33.3,26.3,10.9,0000.0,0001.74,0000.58,0000.31
2022-12-27 19:49:00,,0811.7,5.00,0.00,24.4,23.1,00.0,33.3,26.2,11.3,0000.0,0001.80,0000.60,0000.31
2022-12-27 19:50:00,,0811.6,5.00,0.00,24.4,23.1,00.0,33.3,26.3,10.6,0000.0,0001.86,0000.59,0000.30
2022-12-27 19:51:00,,0811.4,5.00,0.00,24.4,23.1,00.0,33.3,26.3,09.7,0000.0,0001.77,0000.53,0000.29
2022-12-27 19:52:00,,0811.4,5.00,0.00,24.4,23.2,00.0,33.3,26.3,10.0,0000.0,0001.55,0000.50,0000.28
2022-12-27 19:53:00,,0811.2,5.00,0.00,24.4,23.2,00.0,33.3,26.3,10.1,0000.0,0001.83,0000.51,0000.27
2022-12-27 19:54:00,,0811.1,4.99,0.00,24.4,23.2,00.0,33.3,26.3,10.1,0000.0,0002.48,0000.51,0000.27
2022-12-27 19:55:00,,0811.2,5.00,0.00,24.4,23.2,00.0,33.3,26.3,09.9,0000.0,0002.50,0000.51,0000.26
2022-12-27 19:56:00,,0811.4,4.99,0.00,24.4,23.2,00.0,33.3,26.3,10.1,0000.0,0002.51,0000.52,0000.26
2022-12-27 19:57:00,,0811.4,5.00,0.00,24.5,23.2,00.0,33.3,26.4,10.3,0000.0,0002.09,0000.51,0000.25
2022-12-27 19:58:00,,0811.2,5.01,0.00,24.5,23.2,00.0,33.3,26.3,10.2,0000.0,0001.96,0000.47,0000.23
2022-12-27 19:59:00,,0811.1,5.01,0.00,24.5,23.2,00.0,33.3,26.3,09.9,0000.0,0001.79,0000.41,0000.21
